CDT,Max TemperatureF,Mean TemperatureF,Min TemperatureF,Max Dew PointF,MeanDew PointF,Min DewpointF,Max Humidity, Mean Humidity, Min Humidity, Max Sea Level PressureIn, Mean Sea Level PressureIn, Min Sea Level PressureIn, Max VisibilityMiles, Mean VisibilityMiles, Min VisibilityMiles, Max Wind SpeedMPH, Mean Wind SpeedMPH, Max Gust SpeedMPH,PrecipitationIn, CloudCover, Events, WindDirDegrees
2013-8-1,75,64,53,56,52,48,93,68,37,30.01,29.97,29.88,10,10,9,14,7,24,0.00,1,,289
2013-8-2,75,65,55,59,54,49,97,69,38,30.01,29.90,29.83,10,10,9,14,5,18,0.00,1,,310
2013-8-3,75,62,52,52,49,46,93,62,38,30.18,30.10,30.02,10,10,10,16,6,20,0.00,1,,336
2013-8-4,75,62,50,53,50,46,93,67,38,30.26,30.19,30.10,10,10,10,7,4,,0.00,1,,183
2013-8-5,72,62,54,63,59,51,94,86,73,30.08,29.94,29.85,10,10,10,14,5,,0.00,6,Rain,194
2013-8-6,81,71,61,66,61,53,100,84,39,29.86,29.81,29.72,10,6,1,28,6,40,0.42,6,Rain,233
2013-8-7,75,66,57,61,57,48,100,84,46,30.03,29.85,29.76,10,8,0,12,7,,0.01,4,Fog,314
2013-8-8,75,60,48,55,50,46,97,65,40,30.07,30.03,29.99,10,10,10,8,2,,0.00,1,,232
2013-8-9,75,66,57,59,53,48,90,65,38,30.09,30.01,29.97,10,10,10,16,6,20,0.00,4,,312
2013-8-10,73,62,55,55,52,49,90,69,47,30.18,30.15,30.10,10,10,10,7,2,,0.00,6,,314
2013-8-11,73,62,54,61,58,52,100,85,64,30.14,30.09,30.04,10,9,1,8,1,,0.00,4,Rain,181
2013-8-12,80,66,54,63,56,50,100,84,37,30.05,30.01,29.95,10,4,0,15,3,22,0.00,4,Fog,325
2013-8-13,72,58,46,46,44,43,93,61,39,30.21,30.14,30.07,10,10,10,14,7,23,0.00,2,,6
2013-8-14,73,59,45,49,46,43,97,64,33,30.24,30.19,30.13,10,10,10,8,2,,0.00,2,,306
2013-8-15,79,63,51,53,49,45,89,59,33,30.16,30.12,30.09,10,10,10,10,4,,0.00,4,,282
2013-8-16,80,66,52,56,52,49,93,63,36,30.20,30.17,30.14,10,10,10,8,4,,0.00,1,,276
2013-8-17,82,67,54,58,54,51,93,64,38,30.25,30.20,30.16,10,10,10,10,3,,0.00,1,,210
2013-8-18,82,67,53,58,55,53,100,70,38,30.21,30.15,30.08,10,9,2,15,4,20,0.00,0,,211
2013-8-19,82,68,55,63,59,54,93,72,47,30.07,30.03,29.99,10,10,6,13,6,20,0.00,1,,224
2013-8-20,88,74,61,66,64,60,97,72,49,30.02,29.98,29.95,10,8,4,17,7,24,0.00,3,Rain,194
2013-8-21,90,78,64,71,67,63,100,81,53,30.03,29.95,29.88,10,7,0,18,8,24,0.00,2,Fog-Rain,215
2013-8-22,84,71,60,64,58,49,100,77,31,30.14,30.07,30.00,10,6,1,10,2,,0.00,0,,41
2013-8-23,84,70,57,59,56,53,90,64,40,30.20,30.16,30.12,10,10,10,13,6,,0.00,2,,148
2013-8-24,84,70,57,67,59,48,93,67,38,30.22,30.16,30.09,10,10,9,17,8,24,0.00,2,,178
2013-8-25,93,82,71,71,69,66,87,69,45,30.11,30.06,30.01,10,9,7,18,12,26,0.00,0,,214
2013-8-26,93,81,69,74,69,64,93,72,47,30.13,30.00,29.91,10,10,8,18,8,23,0.00,2,,211
2013-8-27,95,83,73,76,73,70,100,77,47,29.92,29.85,29.78,10,8,5,10,5,,0.05,3,Rain,240
2013-8-28,86,78,69,72,69,65,100,79,51,30.05,30.00,29.89,10,8,2,10,5,,0.00,4,,92
2013-8-29,89,76,64,72,67,63,100,80,53,30.09,30.03,29.92,10,8,1,13,4,17,0.00,2,,177
2013-8-30,86,74,64,73,67,60,97,75,51,29.91,29.86,29.82,10,9,4,14,8,22,0.00,4,,348
2013-8-31,82,70,57,64,60,57,97,73,44,29.91,29.87,29.78,10,10,7,9,5,,0.00,1,,109